Regional Weather Roundup
Issued by NWS Jackson, KY

Home | Current Version | Previous Version | Text Only | Print | Product List | Glossary Off
Versions: 1 2 3 4 5 6 7 8 9 10 11 12 13 14 15 16 17 18 19 20 21 22 23 24 25 26 27 28 29 30 31 32 33 34 35 36 37 38 39 40 41 42 43 44 45 46 47 48 49 50

666
ASUS43 KJKL 050410
RWRJKL

EAST KENTUCKY HOURLY WEATHER ROUNDUP
NATIONAL WEATHER SERVICE JACKSON KY
1100 PM EST SUN DEC 04 2016

NOTE: "FAIR" INDICATES FEW OR NO CLOUDS BELOW 12,000 FEET WITH
NO SIGNIFICANT WEATHER AND/OR OBSTRUCTIONS TO VISIBILITY.

* THESE REPORTS ARE NOT UNDER NWS QUALITY CONTROL AND MAY NOT
  REPORT WEATHER SUCH AS PRECIPITATION AND FOG.

KYZ079-080-083-085-087-088-110-112-115-119-120-050500
...EASTERN KENTUCKY...

CITY           SKY/WX    TMP DP  RH WIND       PRES   REMARKS
JACKSON        CLOUDY    45  44  97 VRB6      29.96R
LONDON         CLOUDY    47  44  90 SW7       29.99R
SOMERSET*      CLOUDY    45  45 100 W10       30.01R
MONTICELLO*    CLOUDY    47  45  93 W14       30.02R
WILLIAMSBURG*  CLOUDY    46  46 100 SW5       30.00R
MIDDLESBORO*   CLOUDY    46  46 100 CALM      30.00R
HARLAN APT*    CLOUDY    45  43  93 CALM      29.98S VSB 1/2
PIKE CO APT*   FOG       45  45 100 CALM      29.96R VSB 1/4
BIG SANDY APT* RAIN      46  46 100 SW5       29.96
MOREHEAD APT*  CLOUDY    45  45 100 SW12      29.94S
ASHLAND*       CLOUDY    45  43  93 SW3       29.91R
$$

KYZ035-036-041-042-044-050-067-078-099-050500
...CENTRAL KENTUCKY...

CITY           SKY/WX    TMP DP  RH WIND       PRES   REMARKS
MT STERLING*   CLOUDY    45  43  93 W13G18    29.95S
FLEMING/MASON* CLOUDY    44  43  95 SW10G17   29.93R
DANVILLE*      CLOUDY    45  43  93 W10       29.98R
LEXINGTON      CLOUDY    46  42  86 W12       29.95R
FRANKFORT      CLOUDY    46  41  82 W8        29.95R
LOUISVILLE     CLOUDY    45  40  82 W13       29.98R
LEBANON*       CLOUDY    45  43  93 SW6       29.99R
GLASGOW*       CLOUDY    45  45 100 W10       30.01R
BOWLING GREEN  CLOUDY    46  42  86 W9        30.03R
$$

KYZ091>093-OHZ055-061-077-WVZ005-015-034-035-042-050500
...SOUTHERN OHIO/WEST VIRGINIA...

CITY           SKY/WX    TMP DP  RH WIND       PRES   REMARKS
COVINGTON      CLOUDY    43  41  93 W16       29.91R
COLUMBUS       CLOUDY    37  37 100 S6        29.85S WCI  32
DAYTON         CLOUDY    39  38  96 SW14      29.87R FOG     WCI  31
WILMINGTON     CLOUDY    42  41  96 W17G25    29.87R FOG
HUNTINGTON     CLOUDY    46  43  89 SW9       29.92R
CHARLESTON     LGT RAIN  46  44  93 S3        29.92R FOG
PINEVILLE*     CLOUDY    44  41  89 MISG      30.01R FOG
BECKLEY        CLOUDY    38  36  92 S10       29.94S FOG     WCI  31
BLUEFIELD      CLOUDY    42  39  89 S12G17    29.96S
$$

VAZ002-007-008-TNZ017-027-036-066-071-050500
...SOUTHWEST VIRGINIA/EAST TENNESSEE...

CITY           SKY/WX    TMP DP  RH WIND       PRES   REMARKS
WISE*          CLOUDY    43  43 100 SW6       29.98R FOG
ABINGDON*      DRIZZLE   45  44  99 CALM      29.99R
BRISTOL        DRIZZLE   46  44  93 NW5       30.01R FOG
MORRISTOWN*    CLOUDY    45  45 100 SW5       30.01R FOG
SEVIERVILLE*   CLOUDY    43  43 100 CALM      30.02R
KNOXVILLE      LGT RAIN  46  44  93 SW3       30.00F FOG
OAK RIDGE      CLOUDY    47  44  90 W6        30.02S
CROSSVILLE     CLOUDY    45  44  97 SW6       30.01R FOG
NASHVILLE      CLOUDY    48  44  86 W5        30.04R
$$

...KEY TO REMARKS...
VSB - VISIBILITY IN MILES
WCI - WIND CHILL INDEX
HX  - HEAT INDEX

$$




USA.gov is the U.S. government's official web portal to all federal, state and local government web resources and services.